DLH150 EDDS-EDDH

Flight info

Callsign DLH150
Flight time N/A
Altitude
Route DCT
Aircraft

Departure

Time N/A
Airport Stuttgart Airport (EDDS)

Arrival

Time 2026-05-04 21:49
Airport Hamburg Helmut Schmidt Airport (EDDH)
Time Latitude Longitude Altitude Speed Heading
2026-05-04 21:49 53.62643 9.98461 41 ft 18 kts 49°
2026-05-04 21:49 53.62731 9.98637 41 ft 21 kts 50°
2026-05-04 21:49 53.62830 9.98836 42 ft 23 kts 50°
2026-05-04 21:50 53.62938 9.99053 42 ft 24 kts 50°
2026-05-04 21:50 53.63044 9.99276 43 ft 25 kts 53°
2026-05-04 21:50 53.63129 9.99472 44 ft 20 kts 54°
2026-05-04 21:50 53.63194 9.99612 43 ft 0 kts 51°
2026-05-04 21:51 53.63200 9.99625 43 ft 4 kts 50°
2026-05-04 21:51 53.63233 9.99684 43 ft 10 kts 47°
2026-05-04 21:51 53.63292 9.99792 44 ft 14 kts 50°
2026-05-04 21:51 53.63363 9.99932 44 ft 17 kts 50°
2026-05-04 21:52 53.63423 10.00069 44 ft 15 kts 70°
2026-05-04 21:52 53.63387 10.00212 43 ft 13 kts 148°
2026-05-04 21:52 53.63307 10.00234 44 ft 12 kts 175°
2026-05-04 21:52 53.63266 10.00240 44 ft 1 kts 175°
2026-05-04 21:53 53.63258 10.00242 44 ft 1 kts 171°
2026-05-04 21:53 53.63248 10.00253 42 ft 2 kts 134°
2026-05-04 21:53 53.63246 10.00273 44 ft 2 kts 90°
2026-05-04 21:53 53.63246 10.00320 44 ft 6 kts 90°
2026-05-04 21:54 53.63247 10.00354 44 ft 0 kts 88°